Location: Keppel Henge
(44.7900°N, 80.9447°W)
Time: 10:31:18
(UTC-04:00)

Tiangong 1 - Pass Details

Date: 15 October 2017
Orbit: 294 x 320 km, 42.8° (Epoch: 18 October)

Event Time Altitude Azimuth Distance (km) Brightness Sun altitude
Rises 20:14:29 0° 268° (W) 2,039 6.4 -17.8°
Reaches altitude 10° 20:17:18 10° 235° (SW) 1,200 4.3 -18.3°
Maximum altitude 20:18:29 12° 209° (SSW) 1,082 3.6 -18.5°
Enters shadow 20:19:13 11° 192° (SSW) 1,126 3.5 -18.6°
